Weather in Telegino

Russia / Ivanovo Oblast     56°47′43″N   40°46′30″E
temp.,
°C
wind,
m/s
gust,
m/s
humid.,
%
clouds,
%
prec.,
mm/h
press.,
hPa
HPBL,
m
6 march, sat
sat600:00−14wnw22890 0.0 101320
03:00−15wsw23890 0.0 101538
06:00−14wsw259667 0.0 1015100
09:00−12wnw259361 0.0 1015249
12:00−8wnw237893 0.0 1015588
15:00−7wnw347994 0.1 1014902
18:00−11w129163 0.0 101421
21:00−13sw229532 0.0 101320
7 march, sun
sun700:00−14ssw34930 0.0 101185
03:00−13ssw410920 0.0 1008245
06:00−10ssw5138875 0.0 1004472
09:00−8ssw6129388 0.9 1000731
12:00−6ssw71292100 1.6 9961030
15:00−4s61193100 3.0 991988
18:00−4s51195100 1.6 988812
21:00−6w91692100 4.1 988948
8 march, mon
mon800:00−7w71388100 2.1 989982
03:00−10w41184100 2.2 991386
06:00−13w3889100 0.0 991222
09:00−12w3893100 0.0 992279
12:00−9wnw4891100 0.2 994498
15:00−5nw4792100 0.6 997709
18:00−8nnw4992100 0.4 1000679
21:00−10nnw3993100 0.5 1003528
9 march, tue
tue900:00−12nw499498 0.1 1005487
03:00−13nw389498 0.2 1008399
06:00−15nnw4993100 0.1 1010479
09:00−18nw3794100 0.1 1012344
12:00−15nw3689100 0.0 1014492
15:00−13nw4687100 0.1 1015600
18:00−17nw2594100 0.0 1016122
21:00−21nw239677 0.0 101831
10 march, wed
wed1000:00−24nw229821 0.0 101820
03:00−25nw229914 0.0 101819
06:00−26nnw22990 0.0 101919
09:00−22n23940 0.0 1019203
12:00−16nne128388 0.0 1019490
15:00−14n117794 0.0 1018689
18:00−19ne1191100 0.0 101820
21:00−22ese129796 0.0 101820